Antigo, WI

6:34 AM CST on November 15, 2019 (GMT -0600)
Langlade County

Weather History for KAIG - October, 2019

Change the Weather History Date:

Monday, October 21, 2019

  Actual Average Record
Temperature  
Mean Temperature 47 °F -  
Max Temperature 54 °F 54 °F 80 °F (1953)
Min Temperature 40 °F 33 °F 19 °F (1960)
Degree Days  
Heating Degree Days 18    
Moisture  
Dew Point 45 °F    
Average Humidity 92    
Maximum Humidity 100    
Minimum Humidity 76    
Precipitation  
Precipitation 0.54 in - - ()
Sea Level Pressure  
Sea Level Pressure 29.52 in    
Wind  
Wind Speed 13 mph ()    
Max Wind Speed 25 mph    
Max Gust Speed 37 mph    
Visibility 6.8 miles    
Events Fog , Rain    
Averages and records for this station are not official NWS values.
T = Trace of Precipitation, MM = Missing Value Source: Averaged Metar Reports

Daily Weather History Graph

Daily Weather History Graph

Search for Another Location

Airport or City:

Astronomy

Oct. 21, 2019 Rise Set
Actual Time 7:19 AM CDT 6:01 PM CDT
Civil Twilight 6:49 AM CDT 6:31 PM CDT
Nautical Twilight 6:15 AM CDT 7:05 PM CDT
Astronomical Twilight 5:41 AM CDT 7:39 PM CDT
Moon No Moon Rise 2:47 PM CDT (10/21)
Length of Visible Light 11h 41m
Length of Day
10h 41m
Waning Gibbous, 48% of the Moon is Illuminated
Oct 21
Waning Gibbous
Oct 27
New
Nov 4
First Quarter
Nov 12
Full
Nov 19
Last Quarter

Hourly Weather History & Observations

Time (CDT) Temp. Windchill Dew Point Humidity Pressure Visibility Wind Dir Wind Speed Gust Speed Precip Events Conditions
12:15 AM 44.1 °F 40.1 °F 38.5 °F 81% 29.93 in 10.0 mi SE 6.9 mph - N/A   Clear
12:35 AM 42.8 °F 40.1 °F 38.5 °F 85% 29.93 in 10.0 mi ESE 4.6 mph - N/A   Clear
12:55 AM 41.4 °F 38.4 °F 38.1 °F 88% 29.92 in 10.0 mi East 4.6 mph - N/A   Clear
1:15 AM 40.1 °F 36.1 °F 37.4 °F 90% 29.90 in 10.0 mi ENE 5.8 mph - N/A   Clear
1:35 AM 41.4 °F 37.6 °F 38.1 °F 88% 29.90 in 10.0 mi East 5.8 mph - N/A   Clear
1:55 AM 42.6 °F 38.4 °F 40.1 °F 91% 29.89 in 10.0 mi ESE 6.9 mph - N/A   Clear
2:15 AM 43.2 °F 37.4 °F 39.4 °F 86% 29.87 in 10.0 mi East 10.4 mph - N/A   Clear
2:35 AM 42.3 °F 36.8 °F 39.0 °F 88% 29.86 in 1.2 mi East 9.2 mph - N/A   Mist
2:55 AM 43.2 °F 35.9 °F 40.6 °F 91% 29.86 in 2.5 mi East 15.0 mph - N/A   Clear
3:15 AM 43.7 °F 36.9 °F 40.5 °F 88% 29.85 in 7.0 mi East 13.8 mph - N/A   Clear
3:35 AM 43.9 °F 36.2 °F 40.1 °F 87% 29.84 in 0.2 mi East 17.3 mph 20.7 mph N/A Fog Fog
3:55 AM 44.1 °F 36.8 °F 41.0 °F 89% 29.83 in 2.0 mi East 16.1 mph 23.0 mph N/A   Clear
4:15 AM 43.7 °F 36.6 °F 41.9 °F 93% 29.83 in 5.0 mi East 15.0 mph 19.6 mph N/A   Clear
4:35 AM 43.2 °F 35.9 °F 42.3 °F 97% 29.82 in 5.0 mi East 15.0 mph - N/A   Clear
4:55 AM 43.3 °F 36.1 °F 42.8 °F 98% 29.80 in 5.0 mi East 15.0 mph - N/A   Scattered Clouds
5:15 AM 43.7 °F 36.6 °F 42.8 °F 97% 29.78 in 5.0 mi East 15.0 mph 20.7 mph N/A   Scattered Clouds
5:35 AM 43.9 °F 37.2 °F 43.0 °F 97% 29.78 in 5.0 mi East 13.8 mph 19.6 mph N/A   Scattered Clouds
5:55 AM 44.6 °F 37.4 °F 43.9 °F 97% 29.77 in 5.0 mi East 16.1 mph 25.3 mph N/A   Mostly Cloudy
6:15 AM 45.0 °F 37.9 °F 44.6 °F 99% 29.75 in 5.0 mi East 16.1 mph 23.0 mph N/A   Overcast
6:35 AM 45.9 °F 38.8 °F 45.0 °F 97% 29.74 in 5.0 mi East 17.3 mph 23.0 mph N/A   Overcast
6:55 AM 46.4 °F 40.4 °F 45.5 °F 97% 29.72 in 5.0 mi East 13.8 mph 19.6 mph N/A   Overcast
7:15 AM 47.3 °F - 46.4 °F 97% 29.70 in 5.0 mi ESE 15.0 mph 23.0 mph N/A   Overcast
7:35 AM 47.8 °F - 46.8 °F 96% 29.69 in 5.0 mi ESE 15.0 mph 20.7 mph N/A   Overcast
7:55 AM 48.2 °F - 46.9 °F 95% 29.67 in 5.0 mi East 19.6 mph 24.2 mph N/A   Overcast
8:15 AM 48.2 °F - 47.3 °F 97% 29.66 in 5.0 mi East 19.6 mph 25.3 mph N/A   Overcast
8:35 AM 48.2 °F - 47.3 °F 97% 29.65 in 4.0 mi East 18.4 mph 24.2 mph N/A   Overcast
8:55 AM 48.4 °F - 47.1 °F 95% 29.64 in 5.0 mi East 18.4 mph 25.3 mph N/A   Overcast
9:15 AM 48.9 °F - 46.9 °F 93% 29.63 in 5.0 mi ESE 19.6 mph 27.6 mph N/A   Overcast
9:35 AM 49.1 °F - 46.6 °F 91% 29.59 in 7.0 mi East 24.2 mph 31.1 mph N/A   Overcast
9:55 AM 49.1 °F - 46.6 °F 91% 29.57 in 7.0 mi ESE 21.9 mph 29.9 mph N/A   Overcast
10:15 AM 49.5 °F - 46.4 °F 89% 29.54 in 7.0 mi East 23.0 mph 32.2 mph N/A   Overcast
10:35 AM 50.0 °F - 46.0 °F 86% 29.53 in 10.0 mi East 24.2 mph 33.4 mph N/A   Overcast
10:55 AM 49.1 °F - 46.8 °F 92% 29.52 in 5.0 mi ESE 23.0 mph 28.8 mph N/A Rain Rain
11:15 AM 48.4 °F - 47.3 °F 96% 29.50 in 3.0 mi East 25.3 mph 32.2 mph 0.02 in Rain Heavy Rain
11:35 AM 48.2 °F - 47.3 °F 97% 29.47 in 4.0 mi East 23.0 mph 36.8 mph 0.02 in Rain Heavy Rain
11:55 AM 48.0 °F - 47.3 °F 97% 29.43 in 3.0 mi East 19.6 mph 29.9 mph 0.04 in Rain Heavy Rain
12:15 PM 47.8 °F - 47.3 °F 98% 29.40 in 1.2 mi East 20.7 mph 28.8 mph 0.08 in Rain Heavy Rain
12:35 PM 47.8 °F - 47.5 °F 99% 29.38 in 1.8 mi East 19.6 mph 31.1 mph 0.13 in Rain Heavy Rain
12:55 PM 48.2 °F - 47.8 °F 99% 29.35 in 1.5 mi East 24.2 mph 33.4 mph 0.21 in Rain Heavy Rain
1:15 PM 48.6 °F - 48.2 °F 99% 29.32 in 1.5 mi East 24.2 mph 33.4 mph 0.07 in Rain Heavy Rain
1:35 PM 49.1 °F - 48.9 °F 99% 29.31 in 1.8 mi ESE 18.4 mph 33.4 mph 0.13 in Rain Heavy Rain
1:55 PM 49.6 °F - 49.3 °F 99% 29.29 in 2.0 mi ESE 19.6 mph 27.6 mph 0.17 in Rain Heavy Rain
2:15 PM 50.4 °F - 50.2 °F 99% 29.28 in 2.5 mi SE 21.9 mph 27.6 mph 0.03 in Rain Heavy Rain
2:35 PM 51.1 °F - 50.9 °F 99% 29.28 in 7.0 mi SE 20.7 mph 29.9 mph 0.03 in Rain Light Rain
2:55 PM 51.8 °F - 51.8 °F 100% 29.27 in 4.0 mi SE 17.3 mph 25.3 mph 0.05 in Rain Rain
3:15 PM 52.2 °F - 52.2 °F 100% 29.27 in 5.0 mi SE 19.6 mph 27.6 mph 0.01 in   Light Drizzle
3:35 PM 52.3 °F - 52.3 °F 100% 29.26 in 10.0 mi SSE 13.8 mph 23.0 mph 0.01 in   Overcast
3:55 PM 52.7 °F - 52.7 °F 100% 29.26 in 10.0 mi SE 16.1 mph 25.3 mph 0.01 in   Overcast
4:15 PM 54.0 °F - 53.8 °F 99% 29.26 in 10.0 mi SSE 12.7 mph - N/A   Overcast
4:35 PM 54.0 °F - 53.6 °F 99% 29.26 in 10.0 mi SSE 12.7 mph - N/A   Overcast
4:55 PM 54.0 °F - 53.6 °F 99% 29.27 in 10.0 mi SSE 18.4 mph 25.3 mph N/A   Overcast
5:15 PM 54.5 °F - 53.2 °F 96% 29.28 in 10.0 mi SSE 13.8 mph 26.5 mph N/A   Mostly Cloudy
5:55 PM 52.7 °F - 52.2 °F 98% 29.28 in 10.0 mi SE 9.2 mph - N/A   Scattered Clouds
6:15 PM 52.7 °F - 52.7 °F 100% 29.28 in 10.0 mi SSE 8.1 mph - N/A   Mostly Cloudy
6:35 PM 53.6 °F - 53.6 °F 100% 29.28 in 10.0 mi South 12.7 mph - 0.01 in Rain Rain
6:55 PM 53.6 °F - 51.6 °F 93% 29.29 in 10.0 mi South 15.0 mph 26.5 mph 0.06 in   Overcast
7:15 PM 52.2 °F - 49.3 °F 90% 29.30 in 10.0 mi South 16.1 mph 20.7 mph N/A   Scattered Clouds
7:35 PM 50.9 °F - 47.3 °F 87% 29.30 in 10.0 mi SSW 11.5 mph - N/A   Mostly Cloudy
7:55 PM 50.9 °F - 43.7 °F 76% 29.31 in 10.0 mi SSW 17.3 mph 28.8 mph N/A   Overcast
8:15 PM 49.6 °F - 43.7 °F 80% 29.32 in 10.0 mi SSW 12.7 mph 23.0 mph N/A   Overcast
8:35 PM 48.7 °F - 41.7 °F 77% 29.32 in 10.0 mi SSW 12.7 mph 19.6 mph N/A   Overcast
8:55 PM 48.6 °F - 41.2 °F 76% 29.32 in 10.0 mi SSW 12.7 mph 16.1 mph N/A   Overcast
9:15 PM 46.6 °F - 39.7 °F 77% 29.32 in 10.0 mi South 13.8 mph 20.7 mph N/A   Scattered Clouds
9:35 PM 45.5 °F 40.3 °F 39.2 °F 79% 29.32 in 10.0 mi South 10.4 mph 19.6 mph N/A   Scattered Clouds
9:55 PM 44.8 °F 38.3 °F 38.3 °F 78% 29.32 in 10.0 mi South 13.8 mph 18.4 mph N/A   Mostly Cloudy
10:15 PM 44.4 °F 39.0 °F 38.5 °F 80% 29.32 in 10.0 mi SSW 10.4 mph 17.3 mph N/A   Mostly Cloudy
10:35 PM 43.2 °F 38.4 °F 38.5 °F 84% 29.31 in 10.0 mi South 8.1 mph - N/A   Scattered Clouds
10:55 PM 41.7 °F 36.1 °F 38.3 °F 88% 29.30 in 10.0 mi South 9.2 mph - N/A   Scattered Clouds
11:15 PM 42.3 °F 36.3 °F 38.5 °F 86% 29.30 in 10.0 mi South 10.4 mph - N/A   Scattered Clouds
11:35 PM 43.9 °F 37.9 °F 39.4 °F 84% 29.30 in 10.0 mi South 11.5 mph 16.1 mph N/A   Overcast
11:55 PM 43.7 °F 38.6 °F 39.2 °F 84% 29.29 in 10.0 mi South 9.2 mph 19.6 mph N/A   Overcast